Weather in Temirgoevskaya

Russia / Krasnodar Krai     45°06′38″N   40°17′11″E
temp.,
°C
wind,
m/s
gust,
m/s
humid.,
%
clouds,
%
prec.,
mm/h
press.,
hPa
HPBL,
m
18 august, thu
thu1800:00+22sse22800 2.0 100819
03:00+21ssw118812 4.0 100911
06:00+20ssw23923 2.3 101069
09:00+26sse116472 2.3 1010569
12:00+28nnw215645 0.1 1009580
15:00+32n333935 0.1 10071964
18:00+27nne355594 0.4 1008243
21:00+22se598781 2.7 1009257
19 august, fri
fri1900:00+22ese358695 0.4 1008175
03:00+21ese358520 0.7 1008113
06:00+20se3787100 0.9 1008163
09:00+26se2265100 0.9 1009510
12:00+31ene3343100 0.0 10081719
15:00+27ese2562100 1.3 1008707
18:00+22nnw238984 1.1 100886
21:00+23wnw2386100 1.5 100979
20 august, sat
sat2000:00+22ese1188100 0.0 100911
03:00+21nw1192100 0.0 101022
06:00+21sw2291100 0.3 101056
09:00+26sse346499 0.3 1010480
12:00+29e2449100 0.0 10101160
15:00+32ene4540100 0.1 10091994
18:00+30ene4644100 0.0 1009647
21:00+22nne51079100 3.5 1009200
21 august, sun
sun2100:00+21ene5136824 0.5 1010314
03:00+19e6137724 3.6 1010332
06:00+18ene5127468 0.1 1010344
09:00+25e784649 0.1 1009765
12:00+31e563820 0.0 10071401
15:00+34ese563247 0.0 10061948
18:00+32e811325 0.0 10061051
21:00+27e916321 0.0 1007847
22 august, mon
mon2200:00+23e714391 0.0 1007616
03:00+21e713480 0.0 1006508
06:00+20e713493 0.0 1007505
09:00+26e8103993 0.0 1007761
12:00+32e79290 0.0 10061348
15:00+35e79243 0.0 10051983
18:00+33e9132570 0.0 10061194
21:00+28e101629100 0.0 1008941